Zurück zum Katalog

ICEYE-X72

AktivWissenschaftSSO
NORAD 68504·PAYLOAD·🇫🇮 Finland

Gestartet Mar 30, 2026 von Vandenberg Space Force Base

Loading…

Nächste Überflüge (nächste 24 Stunden)

TLE

AktuellSource: Space-Track

Epoche: Sep 14, 2026, 08:15 UTC

1 68504U 26067CS  26257.34402417  .00002100  00000-0  17964-3 0  9994
2 68504  97.7700 215.0389 0002835  53.9453 306.2032 14.98693336 25061

Verfolge ICEYE-X72 in Echtzeit mit AllMySat

Download on the App Store